Flag for Germany Weather past 2 weeks in Ibbenbüren, North Rhine-Westphalia, Germany

Now
70 °F

Partly sunny.


Feels Like: 70 °F
Forecast: 50 / 72 °F
Wind: 8 mph from Northeast

Location: Muenster / Osnabrueck


UV Index: 3 (Moderate)

Visibility: N/A


Pressure: 30.04 "Hg

Humidity: 57%

Dew point: 54 °F

Location of IbbenbürenLocation

Historic Weather in Ibbenbüren

°F

Ibbenbüren temperature yesterday

Maximum temperature yesterday: 68 °F (at 2:50 PM)
Minimum temperature yesterday: 43 °F (at 4:20 AM)
Average temperature yesterday: 56 °F

Past Weeks' High & Low Weather Summary

 TemperatureHumidityPressure
High70 °F (Apr 24, 12:50 PM)100% (Apr 11, 4:50 AM)30.48 "Hg (Apr 11, 4:50 AM)
Low28 °F (Apr 16, 6:20 AM)29% (Apr 17, 3:50 PM)29.65 "Hg (Apr 21, 7:20 PM)
Average51 °F73%30.04 "Hg
* Reported Apr 9 3:20 PM — Apr 24 3:20 PM, Ibbenbüren, Weather by CustomWeather, © 2014

Note: Actual official high and low records may vary slightly from our data, if they occured in-between our weather recording intervals... More about our weather records

Advertising

Historic Weather Conditions — Data for Previous 24 hours

 ConditionsComfort  
Time TempWeatherWind HumidityBarometerVisibility
3:20 PM
Apr 24
70 °FBroken clouds.10 mph57%30.04 "HgN/A
2:50 PM70 °FBroken clouds.8 mph53%30.07 "HgN/A
2:20 PM70 °FBroken clouds.5 mph50%30.07 "HgN/A
1:50 PM70 °FBroken clouds.5 mph57%30.07 "HgN/A
1:20 PM70 °FPartly sunny.5 mph60%30.07 "HgN/A
12:50 PM70 °FPartly sunny.5 mph60%30.07 "HgN/A
12:20 PM68 °FSunny.5 mph60%30.09 "Hg10 mi
11:50 AM68 °FSunny.6 mph64%30.09 "Hg10 mi
11:20 AM64 °FSunny.5 mph73%30.09 "Hg10 mi
10:50 AM64 °FSunny.5 mph64%30.09 "Hg10 mi
10:20 AM63 °FSunny.3 mph68%30.12 "Hg10 mi
9:50 AM61 °FSunny.5 mph68%30.12 "Hg10 mi
9:20 AM59 °FSunny.6 mph77%30.09 "Hg10 mi
8:50 AM57 °FClear.3 mph77%30.12 "Hg6 mi
8:20 AM54 °FClear.3 mph88%30.12 "Hg5 mi
7:50 AM50 °FClear.5 mph100%30.12 "Hg4 mi
7:20 AM46 °FCool.2 mph100%30.12 "Hg3 mi
6:50 AM45 °FQuite cool.1 mph100%30.12 "Hg3 mi
6:20 AM45 °FQuite cool.1 mph100%30.09 "Hg4 mi
5:50 AM46 °FFog.2 mph100%30.09 "Hg4 mi
5:20 AM48 °FFog.5 mph100%30.09 "HgN/A
4:50 AM46 °FFog.3 mph100%30.09 "HgN/A
4:20 AM48 °FClear.2 mph100%30.12 "Hg10 mi
3:50 AM48 °FClear.No wind94%30.12 "Hg10 mi
3:20 AM48 °FClear.2 mph94%30.12 "Hg10 mi
2:50 AM46 °FClear.2 mph93%30.12 "Hg10 mi
2:20 AM45 °FFog.1 mph100%30.12 "HgN/A
1:50 AM48 °FClear.2 mph94%30.12 "Hg10 mi
1:20 AM48 °FClear.2 mph94%30.12 "Hg10 mi
12:50 AM50 °FClear.5 mph88%30.12 "Hg10 mi
12:20 AM50 °FClear.5 mph94%30.12 "Hg10 mi
11:50 PM
Apr 23
50 °FClear.No wind88%30.12 "Hg10 mi
11:20 PM52 °FClear.2 mph88%30.12 "Hg10 mi
10:50 PM52 °FClear.2 mph82%30.12 "Hg10 mi
10:20 PM54 °FClear.2 mph77%30.12 "Hg10 mi
9:50 PM52 °FClear.2 mph82%30.12 "Hg10 mi
9:20 PM55 °FSunny.1 mph77%30.12 "Hg10 mi
8:50 PM59 °FSunny.1 mph68%30.09 "Hg10 mi
8:20 PM63 °FScattered clouds.5 mph59%30.09 "HgN/A
7:50 PM63 °FScattered clouds.2 mph56%30.09 "HgN/A
7:20 PM66 °FScattered clouds.3 mph43%30.09 "HgN/A
6:50 PM66 °FScattered clouds.3 mph43%30.07 "HgN/A
6:20 PM66 °FBroken clouds.7 mph43%30.09 "HgN/A
5:50 PM64 °FSprinkles. Broken clouds.12 mph49%30.09 "HgN/A
5:20 PM66 °FThundershowers. Broken clouds.5 mph52%30.09 "HgN/A
4:50 PM68 °FThundershowers. Broken clouds.2 mph46%30.09 "HgN/A
4:20 PM66 °FBroken clouds.3 mph52%30.09 "HgN/A
Weather by CustomWeather, © 2014

See weather overview